Weather History for Grand Forks AFB, ND

Change the Weather History Date:

Thursday, October 18, 2012

  Actual Average Record
Temperature  
Mean Temperature 46 °F -  
Max Temperature 50 °F 51 °F 69 °F (2000)
Min Temperature 41 °F 31 °F 28 °F (2004)
Degree Days  
Heating Degree Days 20    
Moisture  
Dew Point 44 °F    
Average Humidity 93    
Maximum Humidity 100    
Minimum Humidity 87    
Precipitation  
Precipitation 0.42 in - - ()
Sea Level Pressure  
Sea Level Pressure 29.39 in    
Wind  
Wind Speed 19 mph (North)    
Max Wind Speed 34 mph    
Max Gust Speed 47 mph    
Visibility 8 miles    
Events Rain    
Averages and records for this station are not official NWS values.
T = Trace of Precipitation, MM = Missing Value Source: NWS Daily Summary

Daily Weather History Graph

Daily Weather History Graph

Search for Another Location

Airport:

Trip Planner

Search our weather history database for the weather conditions in past years. The results will help you decide how hot, cold, wet, or windy it might be!

Date:

Astronomy

Oct. 18, 2012 Rise Set
Actual Time 7:54 AM CDT 6:34 PM CDT
Civil Twilight 7:22 AM CDT 7:05 PM CDT
Nautical Twilight 6:46 AM CDT 7:41 PM CDT
Astronomical Twilight 6:10 AM CDT 8:17 PM CDT
Moon 11:53 AM CDT (10/18) 8:53 PM CDT (10/18)
Length of Visible Light 11h 43m
Length of Day
10h 40m
Waxing Crescent, 14% of the Moon is Illuminated
Oct 18
Waxing Crescent
Oct 21
First Quarter
Oct 29
Full
Nov 6
Last Quarter
Nov 13
New

Hourly Weather History & Observations

Time (CDT) Temp. Windchill Dew Point Humidity Pressure Visibility Wind Dir Wind Speed Gust Speed Precip Events Conditions
12:55 AM 48.2 °F - 45.7 °F 91% 29.16 in 10.0 mi NW 19.6 mph 27.6 mph 0.03 in Rain Light Rain
1:06 AM 48.2 °F - 46.4 °F 93% 29.16 in 10.0 mi NW 19.6 mph 28.8 mph N/A Rain Light Rain
1:23 AM 48.2 °F - 46.4 °F 93% 29.16 in 10.0 mi NW 23.0 mph 29.9 mph N/A   Overcast
1:25 AM 48.2 °F - 46.4 °F 93% 29.16 in 10.0 mi NW 21.9 mph 29.9 mph N/A   Overcast
1:41 AM 48.2 °F - 44.6 °F 87% 29.16 in 10.0 mi NW 20.7 mph 28.8 mph N/A   Overcast
1:43 AM 48.2 °F - 44.6 °F 87% 29.16 in 10.0 mi NW 23.0 mph 32.2 mph N/A   Overcast
1:55 AM 48.4 °F - 45.5 °F 90% 29.17 in 10.0 mi NW 19.6 mph 32.2 mph 0.01 in   Overcast
2:07 AM 48.2 °F - 44.6 °F 87% 29.17 in 10.0 mi NW 18.4 mph 31.1 mph N/A   Overcast
2:55 AM 48.2 °F - 45.5 °F 90% 29.18 in 10.0 mi NW 18.4 mph 26.5 mph N/A   Overcast
3:36 AM 48.2 °F - 46.4 °F 93% 29.18 in 10.0 mi NW 16.1 mph - N/A   Light Drizzle
3:42 AM 48.2 °F - 46.4 °F 93% 29.18 in 8.0 mi NW 18.4 mph - N/A   Light Drizzle
3:48 AM 48.2 °F - 46.4 °F 93% 29.18 in 7.0 mi NW 17.3 mph - N/A   Light Drizzle
3:55 AM 48.0 °F - 46.0 °F 93% 29.18 in 7.0 mi NW 16.1 mph - 0.00 in   Light Drizzle
4:05 AM 48.2 °F - 46.4 °F 93% 29.18 in 7.0 mi NW 13.8 mph - N/A Rain Light Rain
4:13 AM 48.2 °F - 46.4 °F 93% 29.18 in 8.0 mi NW 13.8 mph - N/A   Light Drizzle
4:34 AM 48.2 °F - 46.4 °F 93% 29.19 in 10.0 mi NW 15.0 mph - N/A   Overcast
4:44 AM 48.2 °F - 46.4 °F 93% 29.19 in 10.0 mi NNW 16.1 mph - N/A   Overcast
4:55 AM 48.4 °F - 47.1 °F 95% 29.19 in 10.0 mi NNW 13.8 mph - 0.00 in   Overcast
4:56 AM 48.2 °F - 46.4 °F 93% 29.20 in 10.0 mi NNW 13.8 mph - N/A   Overcast
5:03 AM 48.2 °F - 48.2 °F 100% 29.20 in 10.0 mi NNW 13.8 mph - N/A   Light Drizzle
5:17 AM 48.2 °F - 48.2 °F 100% 29.21 in 9.0 mi North 13.8 mph - N/A Rain Light Rain
5:25 AM 48.2 °F - 48.2 °F 100% 29.21 in 5.0 mi North 13.8 mph - N/A Rain Light Rain
5:48 AM 50.0 °F - 48.2 °F 94% 29.22 in 2.5 mi NNE 10.4 mph 20.7 mph N/A Rain Light Rain
5:51 AM 50.0 °F - 48.2 °F 94% 29.22 in 1.8 mi NNE 10.4 mph 20.7 mph N/A Rain Light Rain
5:53 AM 48.2 °F - 48.2 °F 100% 29.22 in 1.2 mi NNE 12.7 mph - N/A Rain Light Rain
5:55 AM 48.2 °F - 48.2 °F 100% 29.23 in 1.0 mi NNE 11.5 mph - N/A   Light Drizzle
5:57 AM 48.2 °F - 48.2 °F 100% 29.23 in 1.0 mi NNE 10.4 mph - N/A   Mist
6:04 AM 48.2 °F - 48.2 °F 100% 29.23 in 1.5 mi NNE 10.4 mph - N/A   Overcast
6:05 AM 48.2 °F - 48.2 °F 100% 29.23 in 1.5 mi NNE 12.7 mph - N/A   Overcast
6:07 AM 48.2 °F - 46.4 °F 93% 29.23 in 2.0 mi NNE 13.8 mph - N/A   Overcast
6:09 AM 48.2 °F - 46.4 °F 93% 29.24 in 2.5 mi NNE 13.8 mph - N/A   Overcast
6:10 AM 48.2 °F - 46.4 °F 93% 29.24 in 3.0 mi NNE 12.7 mph - N/A   Overcast
6:12 AM 48.2 °F - 46.4 °F 93% 29.24 in 4.0 mi NNE 12.7 mph - N/A   Overcast
6:44 AM 46.4 °F 39.8 °F 46.4 °F 100% 29.27 in 10.0 mi NNE 16.1 mph - N/A   Overcast
6:51 AM 46.4 °F 39.8 °F 46.4 °F 100% 29.28 in 10.0 mi NE 16.1 mph - N/A   Overcast
7:01 AM 46.4 °F 40.1 °F 46.4 °F 100% 29.29 in 8.0 mi NE 15.0 mph - N/A   Light Drizzle
7:07 AM 46.4 °F 40.1 °F 46.4 °F 100% 29.29 in 7.0 mi NE 15.0 mph - N/A   Light Drizzle
7:11 AM 46.4 °F 40.7 °F 44.6 °F 93% 29.29 in 6.0 mi NE 12.7 mph - N/A   Overcast
7:28 AM 46.4 °F 40.4 °F 44.6 °F 93% 29.30 in 6.0 mi NNE 13.8 mph - N/A   Overcast
7:33 AM 46.4 °F 39.8 °F 44.6 °F 93% 29.30 in 7.0 mi NNE 16.1 mph - N/A   Overcast
7:44 AM 46.4 °F 40.4 °F 44.6 °F 93% 29.31 in 6.0 mi NNE 13.8 mph - N/A   Overcast
7:46 AM 46.4 °F 40.7 °F 44.6 °F 93% 29.31 in 6.0 mi NNE 12.7 mph - N/A   Overcast
7:55 AM 46.0 °F 40.2 °F 45.0 °F 96% 29.32 in 9.0 mi NNE 12.7 mph - 0.00 in   Overcast
8:14 AM 46.4 °F 40.1 °F 44.6 °F 93% 29.34 in 10.0 mi NNE 15.0 mph - N/A   Overcast
8:23 AM 46.4 °F 39.5 °F 44.6 °F 93% 29.35 in 10.0 mi NE 17.3 mph - N/A   Overcast
8:55 AM 46.0 °F 39.6 °F 44.2 °F 93% 29.37 in 10.0 mi NNE 15.0 mph - N/A   Overcast
9:06 AM 46.4 °F 40.7 °F 44.6 °F 93% 29.37 in 10.0 mi NNE 12.7 mph - N/A   Overcast
9:15 AM 46.4 °F 40.4 °F 44.6 °F 93% 29.38 in 10.0 mi North 13.8 mph - N/A   Overcast
9:17 AM 46.4 °F 40.1 °F 44.6 °F 93% 29.38 in 10.0 mi NNE 15.0 mph 20.7 mph N/A   Overcast
9:34 AM 46.4 °F 40.1 °F 44.6 °F 93% 29.39 in 7.0 mi NNE 15.0 mph - N/A   Overcast
9:55 AM 47.1 °F - 45.9 °F 95% 29.39 in 10.0 mi North 11.5 mph - N/A   Overcast
10:23 AM 48.2 °F - 46.4 °F 93% 29.41 in 10.0 mi NNE 13.8 mph 21.9 mph N/A   Overcast
10:37 AM 48.2 °F - 46.4 °F 93% 29.42 in 10.0 mi North 19.6 mph 25.3 mph N/A   Light Drizzle
10:49 AM 48.2 °F - 46.4 °F 93% 29.42 in 4.0 mi North 20.7 mph 28.8 mph N/A   Overcast
10:55 AM 48.0 °F - 46.6 °F 95% 29.42 in 4.0 mi North 20.7 mph 28.8 mph 0.00 in   Overcast
11:01 AM 48.2 °F - 46.4 °F 93% 29.42 in 4.0 mi North 18.4 mph 27.6 mph N/A Rain Light Rain
11:04 AM 48.2 °F - 46.4 °F 93% 29.42 in 4.0 mi North 23.0 mph 28.8 mph N/A   Overcast
11:09 AM 48.2 °F - 46.4 °F 93% 29.43 in 4.0 mi North 20.7 mph 28.8 mph N/A   Overcast
11:10 AM 48.2 °F - 46.4 °F 93% 29.43 in 5.0 mi North 21.9 mph 28.8 mph N/A Rain Light Rain
11:22 AM 46.4 °F 37.9 °F 46.4 °F 100% 29.43 in 10.0 mi North 25.3 mph 32.2 mph N/A   Overcast
11:24 AM 46.4 °F 39.0 °F 46.4 °F 100% 29.44 in 10.0 mi North 19.6 mph 32.2 mph N/A   Overcast
11:37 AM 46.4 °F 39.0 °F 44.6 °F 93% 29.44 in 10.0 mi North 19.6 mph 32.2 mph N/A   Overcast
11:54 AM 46.4 °F 37.9 °F 44.6 °F 93% 29.44 in 10.0 mi North 25.3 mph 38.0 mph N/A   Overcast
11:55 AM 46.4 °F 38.1 °F 44.8 °F 94% 29.44 in 10.0 mi North 24.2 mph 38.0 mph 0.01 in   Overcast
12:01 PM 46.4 °F 37.2 °F 44.6 °F 93% 29.44 in 10.0 mi North 29.9 mph 38.0 mph N/A   Light Drizzle
12:05 PM 46.4 °F 38.5 °F 44.6 °F 93% 29.44 in 10.0 mi North 21.9 mph 38.0 mph N/A   Light Drizzle
12:55 PM 45.5 °F 37.1 °F 43.9 °F 94% 29.46 in 6.0 mi North 23.0 mph 35.7 mph 0.03 in Rain Rain
1:48 PM 46.4 °F 37.0 °F 42.8 °F 87% 29.47 in 8.0 mi North 31.1 mph 39.1 mph N/A Rain Rain
1:55 PM 45.7 °F 36.7 °F 43.5 °F 92% 29.47 in 8.0 mi North 26.5 mph 39.1 mph 0.07 in Rain Light Rain
2:55 PM 45.5 °F 35.8 °F 42.8 °F 90% 29.49 in 7.0 mi North 31.1 mph 46.0 mph 0.05 in Rain Rain
3:04 PM 44.6 °F 35.5 °F 42.8 °F 93% 29.51 in 9.0 mi North 25.3 mph 44.9 mph N/A Rain Light Rain
3:09 PM 44.6 °F 34.1 °F 42.8 °F 93% 29.50 in 10.0 mi North 34.5 mph 46.0 mph N/A   Overcast
3:11 PM 44.6 °F 35.1 °F 42.8 °F 93% 29.51 in 10.0 mi North 27.6 mph 46.0 mph N/A   Overcast
3:12 PM 44.6 °F 35.3 °F 42.8 °F 93% 29.51 in 10.0 mi North 26.5 mph 46.0 mph N/A Rain Light Rain
3:33 PM 44.6 °F 34.6 °F 42.8 °F 93% 29.52 in 4.0 mi North 31.1 mph 44.9 mph N/A   Overcast
3:55 PM 44.2 °F 34.2 °F 42.4 °F 93% 29.52 in 6.0 mi North 29.9 mph 40.3 mph 0.03 in   Overcast
4:09 PM 44.6 °F 35.1 °F 42.8 °F 93% 29.54 in 9.0 mi North 27.6 mph 47.2 mph N/A   Overcast
4:55 PM 43.5 °F 33.6 °F 41.2 °F 91% 29.56 in 10.0 mi North 27.6 mph 40.3 mph 0.04 in   Overcast
5:15 PM 42.8 °F 31.9 °F 41.0 °F 93% 29.57 in 9.0 mi North 32.2 mph 44.9 mph N/A   Overcast
5:44 PM 42.8 °F 32.5 °F 41.0 °F 93% 29.59 in 10.0 mi North 28.8 mph 42.6 mph N/A   Overcast
5:55 PM 42.8 °F 32.5 °F 40.5 °F 91% 29.60 in 10.0 mi North 28.8 mph 43.7 mph 0.03 in Rain Light Rain
6:02 PM 42.8 °F 32.3 °F 39.2 °F 87% 29.60 in 10.0 mi North 29.9 mph 46.0 mph N/A Rain Light Rain
6:55 PM 42.1 °F 32.1 °F 39.7 °F 91% 29.63 in 9.0 mi North 25.3 mph 47.2 mph 0.02 in   Overcast
7:14 PM 42.8 °F 32.7 °F 39.2 °F 87% 29.64 in 9.0 mi North 27.6 mph 44.9 mph N/A   Overcast
7:18 PM 42.8 °F 32.7 °F 39.2 °F 87% 29.64 in 9.0 mi North 27.6 mph 44.9 mph N/A   Overcast
7:44 PM 42.8 °F 32.3 °F 39.2 °F 87% 29.65 in 9.0 mi North 29.9 mph 47.2 mph N/A   Overcast
7:55 PM 41.9 °F 30.7 °F 39.6 °F 91% 29.65 in 8.0 mi North 32.2 mph 43.7 mph 0.06 in   Overcast
8:55 PM 41.7 °F 31.4 °F 39.0 °F 90% 29.68 in 10.0 mi North 26.5 mph 40.3 mph 0.03 in   Overcast
9:55 PM 41.5 °F 30.4 °F 38.8 °F 90% 29.70 in 10.0 mi North 31.1 mph 40.3 mph 0.01 in Rain Light Rain
10:03 PM 41.0 °F 30.5 °F 39.2 °F 93% 29.71 in 10.0 mi North 26.5 mph 38.0 mph N/A   Overcast
10:11 PM 41.0 °F 30.0 °F 39.2 °F 93% 29.71 in 10.0 mi North 28.8 mph 39.1 mph N/A Rain Light Rain
10:30 PM 41.0 °F 30.5 °F 39.2 °F 93% 29.72 in 10.0 mi North 26.5 mph 36.8 mph N/A   Overcast
10:55 PM 41.5 °F 30.8 °F 38.5 °F 89% 29.72 in 10.0 mi North 28.8 mph 38.0 mph 0.00 in   Overcast
11:10 PM 41.0 °F 30.2 °F 37.4 °F 87% 29.73 in 10.0 mi North 27.6 mph 39.1 mph N/A   Overcast
11:16 PM 41.0 °F 30.0 °F 37.4 °F 87% 29.72 in 10.0 mi North 28.8 mph 39.1 mph N/A Rain Light Rain
11:40 PM 41.0 °F 29.7 °F 39.2 °F 93% 29.72 in 10.0 mi North 31.1 mph 36.8 mph N/A   Overcast
11:47 PM 41.0 °F 30.5 °F 37.4 °F 87% 29.73 in 10.0 mi North 26.5 mph 38.0 mph N/A   Overcast
11:55 PM 41.2 °F 30.7 °F 38.1 °F 89% 29.73 in 10.0 mi North 26.5 mph 38.0 mph 0.00 in   Overcast